Regional Weather Roundup
Issued by NWS

Home | Current Version | Previous Version | Graphics & Text | Print | Product List | Glossary On
Versions: 1 2 3 4 5 6 7 8 9 10 11 12 13 14 15 16 17 18 19 20 21 22 23 24 25 26 27 28 29 30 31 32 33 34 35 36 37 38 39 40 41 42 43 44 45 46 47 48 49 50
000
ASUS43 KBIS 281710
RWRND

NORTH DAKOTA REGIONAL WEATHER ROUNDUP
NATIONAL WEATHER SERVICE BISMARCK ND
1200 PM CDT TUE MAR 28 2017

NOTE: "FAIR" INDICATES FEW OR NO CLOUDS BELOW 12,000 FEET WITH NO
SIGNIFICANT WEATHER AND/OR OBSTRUCTIONS TO VISIBILITY.


NDZ001>003-009>011-017-281800-
NORTHWEST NORTH DAKOTA

CITY           SKY/WX    TMP DP  RH WIND       PRES   REMARKS
WILLISTON      CLOUDY    43  37  79 NE5       30.09R
MINOT          CLOUDY    39  37  92 E7        30.13R FOG
MINOT AFB      FOG       37  37  99 SE9       30.13R VSB 1
$$

NDZ018>021-031>035-040>046-281800-
SOUTHWEST NORTH DAKOTA

CITY           SKY/WX    TMP DP  RH WIND       PRES   REMARKS
BISMARCK       FAIR      43  37  79 NE7       30.14S
DICKINSON      FAIR      47  37  68 SE8       30.06S
GARRISON         N/A     35  35 100 SE9       30.12S
HETTINGER ARPT MOSUNNY   53  37  54 SE14      30.08S
$$

NDZ004>008-012>016-024-026-027-054-281800-
NORTHEAST NORTH DAKOTA

CITY           SKY/WX    TMP DP  RH WIND       PRES   REMARKS
GRAND FORKS    PTSUNNY   45  37  73 N7        30.20R
GRND FRKS AFB  SUNNY     44  37  77 N7        30.21R
DEVILS LAKE    FAIR      46  36  68 SE9       30.18
$$

NDZ022-023-025-028>030-036>039-047>053-281800-
SOUTHEAST NORTH DAKOTA

CITY           SKY/WX    TMP DP  RH WIND       PRES   REMARKS
FARGO          CLOUDY    44  39  82 N5        30.18S
JAMESTOWN      FAIR      39  37  92 CALM      30.17R
$$





USA.gov is the U.S. government's official web portal to all federal, state and local government web resources and services.